Location: Observatory
(52.1446°N, 0.4624°W)
Time: 18:13:35
(UTC+00:00)

ISS - Pass Details

Date: 03 December 2021
Orbit: 417 x 422 km, 51.6° (Epoch: 06 December)

Event Time Altitude Azimuth Distance (km) Brightness Sun altitude
Rises 17:43:04 0° 281° (W) 2,380 1.2 -16.1°
Reaches altitude 10° 17:45:12 10° 276° (W) 1,513 0.2 -16.4°
Maximum altitude 17:48:30 50° 201° (SSW) 546 -3.0 -16.9°
Enters shadow 17:50:06 26° 137° (SE) 875 -2.4 -17.1°
